STARLINK-4726, 53802

Orbit data source: Space-Track

STARLINK-4726, 53802 is a payload satellite owned by SpaceX/Seattle (US) in LEO that was launched on Sun, 11 Sep 2022 UTC via an FALCON 9 launch vehicle from the Air Force Eastern Test Range (AFETR). Payload-class satellites include a variety of spacecraft equipped with specific instruments for various scientific and technological missions. These include communications satellites like Starlink; space stations such as the ISS; scientific satellites like the Hubble; Earth observation satellites from companies like Planet Labs, Umbra, and HawkEye 360; GPS; miniature CubeSats for education and research; and military/defense satellites.

Loading next visibility...
Identifier
53802, 2022-111AF
Orbit
LEO
Country
Flag of USUS
Related business
Manufacturer
SpaceX/Seattle
Mission
Operational Commercial Communications
Bus & Motor
STARLINK, Unknown motor
Mass
305 kg wet, ~290 kg dry
Launch date (UTC)
2022-09-11 (4 years ago)
Launch vehicle
FALCON 9
Launch site
Air Force Eastern Test Range (AFETR)
Object type
Payload
Rocket body
Debris
Shape & HBR
Box + 1 Pan, 10.1 m
Radar Cross Section
13.562 m², Large (>1 m²)

Expand to show TLE details & history
Last TLE update: 9 hours ago

TLE from 9 hours ago
0 STARLINK-4726
1 53802U 22111AF  26127.87763924 -.00000695  00000-0 -25558-4 0  9990
2 53802  53.2184 358.2825 0001343  94.6207 265.4939 15.08836702202759
Epoch: 2026-05-07T21:03Z
TLE epoch observation values (Epoch: 2026-05-07T21:03:48.030Z)
Latitude
0.00002°
Longitude
176.61492°
Altitude
540.724 km
Speed
7.593 km/s
True Right ascension
23h 53m 07s
True Declination
0° 00' 00"
Sunlit
Object was in daylight at epoch
Visualization orbit readout
Latitude
Unknown
Longitude
Unknown
Altitude
Unknown
Speed
Unknown
Apparent Right ascension
Unknown
Apparent Declination
Unknown
Sunlit
N/A
Visualization observer readout
Local Sidereal Time
13:53:49
Azimuth
Unknown
Elevation
Unknown
Doppler factor
Unknown
Orbital elements
Apogee altitude
540.927 km
Perigee altitude
539.069 km
Semi-major axis
6,918.135 km
Eccentricity
0.00013
Inclination
53.2184°
RAAN
358.2825°
Arg. of periapsis
94.6207°
True anomaly
265.47856°
Mean anomaly
265.4939°
Eccentric anomaly
265.48623°
Mean motion
3.7719 °/min
Orbital period
95.44 mins
BSTAR
-0.000025558
Loading maneuver chart data...
Computing Atmospheric mass density...

Documentation

Showing up to 5 results
|